Change the Weather History Date:

Friday, January 7, 2011

  Actual Average Record
Temperature  
Mean Temperature 19 °F -  
Max Temperature 29 °F 32 °F 55 °F (2012)
Min Temperature 9 °F 15 °F -4 °F (1996)
Degree Days  
Heating Degree Days 46    
Moisture  
Dew Point 12 °F    
Average Humidity 64    
Maximum Humidity 83    
Minimum Humidity 53    
Precipitation  
Precipitation 0.00 in - - ()
Sea Level Pressure  
Sea Level Pressure 29.55 in    
Wind  
Wind Speed 2 mph (NNE)    
Max Wind Speed 8 mph    
Max Gust Speed -    
Visibility 10 miles    
Events      
Averages and records for this station are not official NWS values.
T = Trace of Precipitation, MM = Missing Value Source: NWS Daily Summary

Daily Weather History Graph

Daily Weather History Graph

Search for Another Location

Airport or City:

Trip Planner

Search our weather history database for the weather conditions in past years. The results will help you decide how hot, cold, wet, or windy it might be!

Date:

Astronomy

Jan. 07, 2011 Rise Set
Actual Time 7:16 AM EST 4:28 PM EST
Civil Twilight 6:44 AM EST 5:00 PM EST
Nautical Twilight 6:09 AM EST 5:35 PM EST
Astronomical Twilight 5:35 AM EST 6:09 PM EST
Moon 8:53 AM EST (1/7) 8:06 PM EST (1/7)
Length of Visible Light 10h 15m
Length of Day
9h 11m
Waxing Crescent, 11% of the Moon is Illuminated
Jan 7
Waxing Crescent
Jan 12
First Quarter
Jan 19
Full
Jan 26
Last Quarter
Feb 2
New

Hourly Weather History & Observations

Time (EST) Temp. Windchill Dew Point Humidity Pressure Visibility Wind Dir Wind Speed Gust Speed Precip Events Conditions
12:51 AM 9.1 °F 0.8 °F 5.0 °F 83% 29.64 in 10.0 mi WNW 4.6 mph - N/A   Clear
1:51 AM 12.0 °F - 7.2 °F 81% 29.64 in 10.0 mi Calm Calm - N/A   Overcast
2:51 AM 13.1 °F - 8.1 °F 80% 29.63 in 10.0 mi Calm Calm - N/A   Overcast
3:51 AM 14.0 °F - 7.2 °F 74% 29.61 in 10.0 mi Calm Calm - N/A   Overcast
4:51 AM 14.0 °F - 8.1 °F 77% 29.61 in 10.0 mi Calm Calm - N/A   Overcast
5:51 AM 15.1 °F - 8.1 °F 74% 29.61 in 10.0 mi Calm Calm - N/A   Scattered Clouds
6:51 AM 17.1 °F - 9.1 °F 71% 29.62 in 10.0 mi Calm Calm - N/A   Clear
7:51 AM 18.1 °F - 9.1 °F 68% 29.61 in 10.0 mi Calm Calm - N/A   Clear
8:51 AM 19.0 °F 11.1 °F 9.1 °F 65% 29.61 in 10.0 mi NW 5.8 mph - N/A   Scattered Clouds
9:11 AM 21.2 °F - 8.6 °F 58% 29.58 in 10.0 mi Calm Calm - N/A   Mostly Cloudy
9:21 AM 21.2 °F - 8.6 °F 58% 29.58 in 10.0 mi Calm Calm - N/A   Partly Cloudy
9:51 AM 23.0 °F - 10.0 °F 58% 29.59 in 10.0 mi Calm Calm - N/A   Partly Cloudy
10:51 AM 26.1 °F 17.6 °F 13.1 °F 58% 29.57 in 10.0 mi NNE 8.1 mph - N/A   Clear
11:51 AM 28.0 °F - 14.0 °F 56% 29.54 in 10.0 mi Calm Calm - N/A   Clear
12:14 PM 28.4 °F - 14.0 °F 55% 29.51 in 10.0 mi Calm Calm - N/A   Mostly Cloudy
12:51 PM 28.0 °F 24.2 °F 16.2 °F 61% 29.52 in 10.0 mi ENE 3.5 mph - 0.00 in   Partly Cloudy
1:51 PM 29.1 °F 24.1 °F 18.1 °F 64% 29.51 in 10.0 mi ENE 4.6 mph - 0.00 in   Mostly Cloudy
2:51 PM 29.1 °F - 19.0 °F 66% 29.50 in 10.0 mi Calm Calm - 0.00 in   Mostly Cloudy
3:51 PM 29.1 °F 23.0 °F 19.0 °F 66% 29.49 in 10.0 mi ENE 5.8 mph - N/A   Mostly Cloudy
4:51 PM 28.0 °F 21.7 °F 17.1 °F 63% 29.50 in 10.0 mi Variable 5.8 mph - N/A   Overcast
5:51 PM 28.0 °F 20.8 °F 16.2 °F 61% 29.50 in 10.0 mi NE 6.9 mph - N/A   Overcast
6:51 PM 27.1 °F 21.8 °F 14.0 °F 58% 29.50 in 10.0 mi NNE 4.6 mph - N/A   Overcast
6:58 PM 26.6 °F - 14.0 °F 59% 29.48 in 10.0 mi Calm Calm - N/A   Overcast
7:51 PM 26.1 °F - 14.0 °F 60% 29.49 in 10.0 mi Calm Calm - N/A   Overcast
9:51 PM 25.2 °F - 13.1 °F 60% 29.49 in 10.0 mi Calm Calm - N/A   Overcast
10:11 PM 24.8 °F - 12.2 °F 59% 29.48 in 10.0 mi Calm Calm - N/A   Overcast
10:33 PM 24.8 °F - 12.2 °F 59% 29.47 in 10.0 mi Calm Calm - N/A   Overcast
10:51 PM 25.2 °F - 12.0 °F 58% 29.49 in 10.0 mi Calm Calm - N/A   Overcast
11:51 PM 25.2 °F - 10.0 °F 53% 29.48 in 10.0 mi Calm Calm - N/A   Overcast